ACA882 KBOS-CYUL

Flight info

Callsign ACA882
Flight time N/A
Altitude 30000
Route HYLND7 HYLND DCT PBERG CARTR5
Aircraft B77W/H-SDE1E2E3FGHIJ2J3J4J5M1RWXY/LB1D1

Departure

Time 2026-05-07 00:11
Airport Boston Logan International Airport (KBOS)

Arrival

Time N/A
Airport Montreal / Pierre Elliott Trudeau International Airport (CYUL)
Time Latitude Longitude Altitude Speed Heading
2026-05-06 23:07 42.36876 -71.01492 31 ft 0 kts 228°
2026-05-06 23:53 42.36880 -71.01486 31 ft 3 kts 226°
2026-05-06 23:54 42.36896 -71.01471 30 ft 3 kts 189°
2026-05-06 23:54 42.36916 -71.01471 29 ft 3 kts 153°
2026-05-06 23:54 42.36926 -71.01479 29 ft 0 kts 137°
2026-05-07 00:00 42.36925 -71.01478 32 ft 2 kts 137°
2026-05-07 00:01 42.36910 -71.01447 32 ft 5 kts 111°
2026-05-07 00:01 42.36898 -71.01408 31 ft 5 kts 117°
2026-05-07 00:01 42.36876 -71.01373 31 ft 5 kts 142°
2026-05-07 00:01 42.36845 -71.01341 30 ft 6 kts 139°
2026-05-07 00:02 42.36835 -71.01323 30 ft 1 kts 114°
2026-05-07 00:02 42.36835 -71.01320 30 ft 0 kts 104°
2026-05-07 00:03 42.36835 -71.01311 30 ft 2 kts 88°
2026-05-07 00:03 42.36875 -71.01231 29 ft 14 kts 42°
2026-05-07 00:03 42.36948 -71.01137 29 ft 14 kts 44°
2026-05-07 00:04 42.37035 -71.01068 28 ft 15 kts 20°
2026-05-07 00:04 42.37137 -71.01013 27 ft 16 kts 22°
2026-05-07 00:04 42.37230 -71.00955 27 ft 9 kts 27°
2026-05-07 00:04 42.37288 -71.00914 27 ft 12 kts 24°
2026-05-07 00:05 42.37369 -71.00870 26 ft 13 kts 19°
2026-05-07 00:05 42.37452 -71.00831 28 ft 13 kts 20°
2026-05-07 00:05 42.37534 -71.00790 29 ft 13 kts 20°
2026-05-07 00:05 42.37617 -71.00749 29 ft 13 kts 19°
2026-05-07 00:06 42.37695 -71.00714 33 ft 9 kts 18°
2026-05-07 00:06 42.37731 -71.00698 34 ft 5 kts 18°
2026-05-07 00:06 42.37766 -71.00681 34 ft 5 kts 20°
2026-05-07 00:06 42.37809 -71.00658 34 ft 8 kts 24°
2026-05-07 00:07 42.37838 -71.00616 33 ft 6 kts 69°
2026-05-07 00:07 42.37840 -71.00598 33 ft 0 kts 81°
2026-05-07 00:07 42.37839 -71.00592 33 ft 0 kts 103°
2026-05-07 00:07 42.37839 -71.00591 33 ft 0 kts 103°
2026-05-07 00:10 42.37826 -71.00535 32 ft 11 kts 110°
2026-05-07 00:10 42.37799 -71.00484 31 ft 6 kts 163°
2026-05-07 00:11 42.37778 -71.00487 30 ft 0 kts 193°
2026-05-07 00:11 42.37528 -71.00597 30 ft 91 kts 199°
2026-05-07 00:11 42.36581 -71.01046 96 ft 190 kts 199°
2026-05-07 00:11 42.35327 -71.01583 1562 ft 180 kts 196°
2026-05-07 00:12 42.34049 -71.01568 2247 ft 198 kts 168°
2026-05-07 00:12 42.32911 -71.00294 2461 ft 231 kts 130°
2026-05-07 00:12 42.32055 -70.98435 2921 ft 239 kts 126°
2026-05-07 00:12 42.31435 -70.96299 3471 ft 250 kts 107°
2026-05-07 00:13 42.31292 -70.93870 3747 ft 274 kts 81°
2026-05-07 00:13 42.31756 -70.91291 4066 ft 289 kts 76°
2026-05-07 00:13 42.32214 -70.88597 4685 ft 299 kts 78°
2026-05-07 00:13 42.32647 -70.85821 5384 ft 304 kts 79°
2026-05-07 00:14 42.33073 -70.83007 6164 ft 307 kts 79°
2026-05-07 00:14 42.33498 -70.80167 6897 ft 310 kts 79°
2026-05-07 00:14 42.34102 -70.77365 7444 ft 315 kts 60°
2026-05-07 00:14 42.35522 -70.75153 8024 ft 313 kts 30°
2026-05-07 00:15 42.37439 -70.73936 8692 ft 307 kts 11°
2026-05-07 00:15 42.39501 -70.73099 9367 ft 312 kts 10°
2026-05-07 00:15 42.41595 -70.72248 10060 ft 317 kts 11°
2026-05-07 00:15 42.43755 -70.71471 10348 ft 327 kts 360°
2026-05-07 00:16 42.46014 -70.71784 10486 ft 332 kts 333°
2026-05-07 00:16 42.48128 -70.73128 10637 ft 345 kts 326°
2026-05-07 00:16 42.50347 -70.74637 10952 ft 366 kts 327°
2026-05-07 00:16 42.52627 -70.76228 11485 ft 370 kts 320°
2026-05-07 00:17 42.54442 -70.78604 12171 ft 359 kts 298°
2026-05-07 00:17 42.55777 -70.81466 12966 ft 363 kts 296°
2026-05-07 00:17 42.57160 -70.84364 13847 ft 368 kts 297°
2026-05-07 00:17 42.58575 -70.87274 14750 ft 371 kts 297°
2026-05-07 00:18 42.59985 -70.90163 15629 ft 375 kts 297°
2026-05-07 00:18 42.61435 -70.93135 16448 ft 380 kts 296°
2026-05-07 00:18 42.62902 -70.96145 17245 ft 385 kts 296°
2026-05-07 00:18 42.64389 -70.99199 18094 ft 389 kts 296°
2026-05-07 00:19 42.65888 -71.02282 18818 ft 393 kts 296°
2026-05-07 00:19 42.67401 -71.05394 19534 ft 397 kts 296°
2026-05-07 00:19 42.68931 -71.08545 20228 ft 401 kts 296°
2026-05-07 00:19 42.70476 -71.11731 20924 ft 406 kts 296°
2026-05-07 00:20 42.72036 -71.14952 21601 ft 410 kts 296°
2026-05-07 00:20 42.73611 -71.18205 22281 ft 414 kts 297°
2026-05-07 00:20 42.75179 -71.21449 22935 ft 418 kts 297°
2026-05-07 00:20 42.76805 -71.24815 23557 ft 422 kts 297°
2026-05-07 00:21 42.78499 -71.28042 24163 ft 429 kts 304°
2026-05-07 00:21 42.80710 -71.30838 24854 ft 437 kts 313°
2026-05-07 00:21 42.83081 -71.33423 25546 ft 437 kts 313°
2026-05-07 00:21 42.85471 -71.35998 26166 ft 438 kts 313°
2026-05-07 00:22 42.87851 -71.38579 26749 ft 439 kts 313°
2026-05-07 00:22 42.90239 -71.41202 27246 ft 443 kts 312°
2026-05-07 00:22 42.92637 -71.43868 27671 ft 446 kts 312°
2026-05-07 00:22 42.95039 -71.46558 28221 ft 446 kts 311°
2026-05-07 00:23 42.97430 -71.49248 28892 ft 443 kts 311°
2026-05-07 00:23 42.99792 -71.51908 29667 ft 439 kts 311°
2026-05-07 00:23 43.04449 -71.57179 29795 ft 435 kts 310°
2026-05-07 00:24 43.09089 -71.62448 29766 ft 434 kts 310°
2026-05-07 00:24 43.13735 -71.67743 29780 ft 436 kts 311°
2026-05-07 00:25 43.18419 -71.73088 29769 ft 440 kts 311°
2026-05-07 00:25 43.23102 -71.78435 29765 ft 442 kts 311°
2026-05-07 00:26 43.27833 -71.83845 29764 ft 442 kts 311°
2026-05-07 00:26 43.32553 -71.89254 29770 ft 442 kts 311°
2026-05-07 00:27 43.37265 -71.94668 29781 ft 441 kts 311°
2026-05-07 00:27 43.41971 -72.00088 29784 ft 441 kts 311°
2026-05-07 00:28 43.46639 -72.05472 29790 ft 441 kts 311°
2026-05-07 00:28 43.51336 -72.10904 29757 ft 441 kts 311°
2026-05-07 00:29 43.56025 -72.16335 29779 ft 440 kts 311°
2026-05-07 00:30 43.63082 -72.24550 29860 ft 455 kts 313°
2026-05-07 00:30 43.65515 -72.27391 29847 ft 459 kts 313°
2026-05-07 00:30 43.70389 -72.33062 29823 ft 457 kts 313°
2026-05-07 00:31 43.75244 -72.38723 29821 ft 456 kts 313°
2026-05-07 00:31 43.80077 -72.44382 29820 ft 455 kts 313°
2026-05-07 00:32 43.84859 -72.50004 29852 ft 457 kts 314°
2026-05-07 00:32 43.89782 -72.55801 29852 ft 467 kts 314°
2026-05-07 00:33 43.94722 -72.61619 29838 ft 464 kts 314°
2026-05-07 00:33 43.99632 -72.67416 29844 ft 463 kts 314°
2026-05-07 00:34 44.04485 -72.73164 29868 ft 462 kts 314°
2026-05-07 00:34 44.09393 -72.78995 29862 ft 468 kts 314°
2026-05-07 00:35 44.14301 -72.84831 29853 ft 460 kts 314°
2026-05-07 00:35 44.19144 -72.90602 29859 ft 458 kts 314°
2026-05-07 00:36 44.24018 -72.96365 29864 ft 463 kts 317°
2026-05-07 00:36 44.29507 -73.01072 29886 ft 470 kts 328°
2026-05-07 00:37 44.35421 -73.05088 29793 ft 475 kts 328°
2026-05-07 00:37 44.38411 -73.07114 29185 ft 478 kts 328°
2026-05-07 00:37 44.41357 -73.09120 29078 ft 466 kts 328°
2026-05-07 00:38 44.44244 -73.11100 28588 ft 460 kts 328°
2026-05-07 00:38 44.47070 -73.13055 27937 ft 458 kts 327°
2026-05-07 00:38 44.49919 -73.15038 27288 ft 456 kts 327°
2026-05-07 00:38 44.52754 -73.17017 26706 ft 454 kts 327°
2026-05-07 00:39 44.55573 -73.18987 26111 ft 452 kts 327°
2026-05-07 00:39 44.58362 -73.20933 25539 ft 440 kts 327°
2026-05-07 00:39 44.61075 -73.22823 24636 ft 433 kts 326°
2026-05-07 00:39 44.63764 -73.24704 23628 ft 430 kts 326°
2026-05-07 00:40 44.66425 -73.26571 22543 ft 426 kts 326°
2026-05-07 00:40 44.69023 -73.28392 21621 ft 418 kts 326°
2026-05-07 00:40 44.71583 -73.30184 20691 ft 405 kts 326°
2026-05-07 00:40 44.74075 -73.31930 19596 ft 397 kts 326°
2026-05-07 00:41 44.76528 -73.33657 18426 ft 392 kts 325°
2026-05-07 00:41 44.78949 -73.35365 17225 ft 386 kts 326°
2026-05-07 00:41 44.81319 -73.37037 16110 ft 377 kts 326°
2026-05-07 00:41 44.83637 -73.38672 15056 ft 368 kts 326°
2026-05-07 00:42 44.85893 -73.40265 14263 ft 355 kts 327°
2026-05-07 00:42 44.88000 -73.41745 13897 ft 334 kts 327°
2026-05-07 00:42 44.90042 -73.43187 13457 ft 323 kts 326°
2026-05-07 00:42 44.92031 -73.44600 13026 ft 319 kts 326°
2026-05-07 00:43 44.94041 -73.46036 12632 ft 328 kts 327°
2026-05-07 00:43 44.96121 -73.47524 12226 ft 343 kts 327°
2026-05-07 00:43 44.98276 -73.49059 11786 ft 348 kts 327°
2026-05-07 00:43 45.00415 -73.50571 11324 ft 338 kts 327°
2026-05-07 00:44 45.02478 -73.52028 10897 ft 325 kts 327°
2026-05-07 00:44 45.04431 -73.53408 10751 ft 303 kts 327°
2026-05-07 00:44 45.06252 -73.54698 10593 ft 283 kts 326°
2026-05-07 00:44 45.07948 -73.55900 10480 ft 263 kts 326°
2026-05-07 00:45 45.09586 -73.56837 10385 ft 261 kts 341°
2026-05-07 00:45 45.11455 -73.57184 10331 ft 280 kts 348°
2026-05-07 00:45 45.13433 -73.57360 10212 ft 287 kts 350°
2026-05-07 00:45 45.15406 -73.57511 10074 ft 280 kts 350°
2026-05-07 00:46 45.17308 -73.57669 9856 ft 271 kts 349°
2026-05-07 00:46 45.19197 -73.57850 9869 ft 275 kts 349°
2026-05-07 00:46 45.21138 -73.58052 9892 ft 283 kts 349°
2026-05-07 00:46 45.23118 -73.58264 9900 ft 287 kts 349°
2026-05-07 00:47 45.25080 -73.58476 9893 ft 286 kts 349°
2026-05-07 00:47 45.27062 -73.58695 9897 ft 285 kts 350°
2026-05-07 00:47 45.29030 -73.58912 9892 ft 283 kts 350°
2026-05-07 00:47 45.30990 -73.59126 9886 ft 282 kts 350°
2026-05-07 00:48 45.32946 -73.59340 9888 ft 281 kts 350°
2026-05-07 00:48 45.34898 -73.59555 9890 ft 281 kts 350°
2026-05-07 00:48 45.36846 -73.59769 9890 ft 281 kts 350°
2026-05-07 00:48 45.38801 -73.59867 9889 ft 285 kts
2026-05-07 00:49 45.40662 -73.58836 9898 ft 293 kts 31°